Regional Weather Roundup
Issued by NWS

Home | Current Version | Previous Version | Text Only | Print | Product List | Glossary Off
Versions: 1 2 3 4 5 6 7 8 9 10 11 12 13 14 15 16 17 18 19 20 21 22 23 24 25 26 27 28 29 30 31 32 33 34 35 36 37 38 39 40 41 42 43 44 45 46 47 48 49 50

000
ASUS43 KLMK 300210
RWRKY
KENTUCKY REGIONAL WEATHER ROUNDUP
NATIONAL WEATHER SERVICE LOUISVILLE KY
1000 PM EDT FRI AUG 29 2014

NOTE "FAIR" INDICATES FEW OR NO CLOUDS BELOW 12,000 FEET
WITH NO SIGNIFICANT WEATHER AND/OR OBSTRUCTIONS TO VISIBILITY.

KYZ001>023-026-027-061>063-070>075-300300-
WESTERN AND SOUTH CENTRAL KENTUCKY

CITY           SKY/WX    TMP DP  RH WIND       PRES   REMARKS
PADUCAH        MOCLDY    80  68  66 CALM      29.95R
HENDERSON      CLEAR     75  64  69 SE6       29.97R
OWENSBORO      NOT AVBL
HOPKINSVILLE   CLEAR     81  64  56 S3        30.00R
BOWLING GREEN  CLEAR     76  65  68 SE3       30.01R
GLASGOW        CLEAR     73  65  74 CALM      30.02R
$$

KYZ024-025-028>034-038-045-046-053-300300-
NORTH CENTRAL KENTUCKY

CITY           SKY/WX    TMP DP  RH WIND       PRES   REMARKS
LOUISVILLE/SDF PTCLDY    81  65  58 SE6       30.00R
LOUISVILLE/LOU MOCLDY    81  63  54 CALM      30.01R
FORT KNOX      CLEAR     77  65  66 S6        30.01R
$$

KYZ035>037-039>044-047>052-055>060-089>105-300300-
NORTHEAST KENTUCKY

CITY           SKY/WX    TMP DP  RH WIND       PRES   REMARKS
LEXINGTON      PTCLDY    78  71  79 S3        30.05R
COVINGTON      PTCLDY    78  67  68 SE8       30.03S
FRANKFORT      PTCLDY    74  67  78 CALM      30.03R
$$

KYZ054-064>069-076>088-106>120-300300-
SOUTHEAST KENTUCKY

CITY           SKY/WX    TMP DP  RH WIND       PRES   REMARKS
JACKSON        CLEAR     76  69  79 CALM      30.09S
LONDON         CLEAR     78  72  81 CALM      30.08R
SOMERSET       PTCLDY    73  72  94 CALM      30.07S
MIDDLESBORO    CLEAR     74  68  80 CALM      30.10R
MONTICELLO     PTCLDY    71  69  93 CALM      30.08R
$$




USA.gov is the U.S. government's official web portal to all federal, state and local government web resources and services.